Location: Cz?stochówka
(50.8142°N, 19.0915°E)
Time: 08:39:47
(UTC+00:00)

COBE Rocket - Pass Details

Date: 13 January 2026
Orbit: 675 x 772 km, 97.1° (Epoch: 17 February)

Event Time Altitude Azimuth Distance (km) Brightness Sun altitude
Rises 05:41:25 0° 161° (SSE) 3,125 7.8 -9.1°
Reaches altitude 10° 05:43:39 10° 161° (SSE) 2,223 7.1 -8.8°
Maximum altitude 05:48:33 79° 75° (ENE) 764 4.1 -8.1°
Drops below altitude 10° 05:53:38 10° 349° (N) 2,299 6.1 -7.4°
Sets 05:55:58 0° 349° (N) 3,239 6.9 -7.0°
